View from above orbital plane
|
View from above satellite
|
Ground track
|
The orbit data is extracted from the following two-line orbital elements,
1 14208U 83075B 21019.10415744 .00000314 00000-0 22215-4 0 9991
2 14208 97.4209 2.0139 0036960 284.8965 74.8174 15.11303493 45593
Epoch (UTC): | 19 January 2021 02:29:59 |
Eccentricity: | 0.0036960 |
inclination: | 97.4209° |
perigee height: | 506 km |
apogee height: | 558 km |
right ascension of ascending node: | 2.0139° |
argument of perigee: | 284.8965° |
revolutions per day: | 15.11303493 |
mean anomaly at epoch: | 74.8174° |
orbit number at epoch: | 4559 |
The dashed part of the orbit path shows where the satellite is in the earth's shadow,
|
|